When you browse on this site, cookies collect data to enhance your experience and personalize the content and advertising you see.
Visit our Privacy Policy to learn more. By continuing to use the site, you agree to this use of cookies and data.
  • In Austria
  • List of Countries
  • For 7 days
  • Water Temperature
  • Weather Map
  • News
  • Weather Widgets
  • user-avatar
    Login

    Hourly Weather Karaganka

    Today, 4 June, Thursday

    Time Temperature Precipitation Wind Pressure Humidity
    00:00 +16°C° 0 mm 6 mps 738 mmHg 62%
    01:00 +15°C° 0 mm 5 mps 738 mmHg 63%
    02:00 +14°C° 0 mm 5 mps 739 mmHg 64%
    03:00 +14°C° 0 mm 5 mps 739 mmHg 66%
    04:00 +13°C° 0 mm 5 mps 739 mmHg 68%
    05:00 +14°C° 0 mm 6 mps 739 mmHg 64%
    06:00 +15°C° 0 mm 6 mps 739 mmHg 61%
    07:00 +16°C° 0 mm 7 mps 739 mmHg 57%
    08:00 +17°C° 0 mm 7 mps 739 mmHg 53%
    09:00 +20°C° 0 mm 7 mps 739 mmHg 48%
    10:00 +21°C° 0 mm 7 mps 739 mmHg 44%
    11:00 +22°C° 0 mm 7 mps 739 mmHg 41%
    12:00 +22°C° 0 mm 7 mps 739 mmHg 38%
    13:00 +23°C° 0 mm 6 mps 739 mmHg 36%
    14:00 +23°C° 0 mm 6 mps 739 mmHg 35%
    15:00 +23°C° 0 mm 6 mps 739 mmHg 35%
    16:00 +23°C° 0 mm 7 mps 739 mmHg 34%
    17:00 +22°C° 0 mm 6 mps 740 mmHg 38%
    18:00 +21°C° 0 mm 5 mps 740 mmHg 41%
    19:00 +20°C° 0 mm 5 mps 740 mmHg 45%
    20:00 +19°C° 0 mm 5 mps 740 mmHg 47%
    21:00 +17°C° 0 mm 5 mps 741 mmHg 50%
    22:00 +15°C° 0 mm 5 mps 741 mmHg 52%
    23:00 +15°C° 0 mm 6 mps 742 mmHg 54%

    Tomorrow, 5 June, Friday

    Time Temperature Precipitation Wind Pressure Humidity
    00:00 +14°C° 0 mm 6 mps 742 mmHg 55%
    01:00 +13°C° 0 mm 6 mps 742 mmHg 56%
    02:00 +13°C° 0 mm 6 mps 743 mmHg 57%
    03:00 +11°C° 0 mm 6 mps 743 mmHg 58%
    04:00 +10°C° 0 mm 6 mps 743 mmHg 59%
    05:00 +11°C° 0 mm 6 mps 743 mmHg 56%
    06:00 +13°C° 0 mm 6 mps 744 mmHg 53%
    07:00 +13°C° 0 mm 6 mps 744 mmHg 51%
    08:00 +15°C° 0 mm 6 mps 744 mmHg 46%
    09:00 +16°C° 0 mm 6 mps 744 mmHg 42%
    10:00 +17°C° 0 mm 6 mps 745 mmHg 38%
    11:00 +19°C° 0 mm 6 mps 744 mmHg 34%
    12:00 +20°C° 0 mm 5 mps 744 mmHg 31%
    13:00 +21°C° 0 mm 5 mps 744 mmHg 27%
    14:00 +22°C° 0 mm 5 mps 744 mmHg 27%
    15:00 +22°C° 0 mm 5 mps 744 mmHg 27%
    16:00 +22°C° 0 mm 5 mps 744 mmHg 27%
    17:00 +21°C° 0 mm 5 mps 744 mmHg 31%
    18:00 +20°C° 0 mm 4 mps 744 mmHg 35%
    19:00 +19°C° 0 mm 4 mps 744 mmHg 39%
    20:00 +18°C° 0 mm 4 mps 744 mmHg 41%
    21:00 +17°C° 0 mm 4 mps 744 mmHg 42%
    22:00 +15°C° 0 mm 4 mps 744 mmHg 44%
    23:00 +14°C° 0 mm 4 mps 744 mmHg 45%

    Day after tomorrow, 6 June, Saturday

    Time Temperature Precipitation Wind Pressure Humidity
    00:00 +14°C° 0 mm 4 mps 744 mmHg 46%
    01:00 +14°C° 0 mm 4 mps 744 mmHg 47%
    02:00 +13°C° 0 mm 4 mps 744 mmHg 48%
    03:00 +13°C° 0 mm 4 mps 745 mmHg 48%
    04:00 +12°C° 0 mm 4 mps 745 mmHg 49%
    05:00 +14°C° 0 mm 5 mps 745 mmHg 46%
    06:00 +15°C° 0 mm 6 mps 745 mmHg 43%
    07:00 +17°C° 0 mm 7 mps 745 mmHg 40%
    08:00 +18°C° 0 mm 7 mps 745 mmHg 37%
    09:00 +21°C° 0 mm 7 mps 745 mmHg 34%
    10:00 +22°C° 0 mm 7 mps 745 mmHg 31%
    11:00 +23°C° 0 mm 7 mps 745 mmHg 30%
    12:00 +24°C° 0 mm 6 mps 745 mmHg 29%
    13:00 +24°C° 0 mm 6 mps 744 mmHg 28%
    14:00 +24°C° 0 mm 6 mps 744 mmHg 27%
    15:00 +25°C° 0 mm 5 mps 744 mmHg 27%
    16:00 +25°C° 0 mm 5 mps 744 mmHg 27%
    17:00 +23°C° 0 mm 5 mps 744 mmHg 30%
    18:00 +22°C° 0 mm 4 mps 744 mmHg 33%
    19:00 +21°C° 0 mm 4 mps 744 mmHg 37%
    20:00 +20°C° 0 mm 4 mps 744 mmHg 37%
    21:00 +19°C° 0 mm 4 mps 744 mmHg 38%
    22:00 +17°C° 0 mm 4 mps 745 mmHg 38%
    23:00 +17°C° 0 mm 4 mps 745 mmHg 41%

    7 June, Sunday

    Time Temperature Precipitation Wind Pressure Humidity
    00:00 +15°C° 0 mm 4 mps 744 mmHg 43%
    01:00 +14°C° 0 mm 4 mps 744 mmHg 46%
    02:00 +14°C° 0 mm 3 mps 745 mmHg 48%
    03:00 +13°C° 0 mm 3 mps 745 mmHg 50%
    04:00 +13°C° 0 mm 3 mps 745 mmHg 52%
    05:00 +16°C° 0 mm 3 mps 745 mmHg 49%
    06:00 +17°C° 0 mm 4 mps 745 mmHg 46%
    07:00 +19°C° 0 mm 4 mps 745 mmHg 43%
    08:00 +21°C° 0 mm 4 mps 745 mmHg 38%
    09:00 +22°C° 0 mm 5 mps 746 mmHg 33%
    10:00 +25°C° 0 mm 5 mps 746 mmHg 29%
    11:00 +26°C° 0 mm 5 mps 746 mmHg 28%
    12:00 +26°C° 0 mm 5 mps 745 mmHg 26%
    13:00 +27°C° 0 mm 5 mps 745 mmHg 25%
    14:00 +27°C° 0 mm 5 mps 745 mmHg 26%
    15:00 +27°C° 0 mm 5 mps 745 mmHg 26%
    16:00 +27°C° 0 mm 5 mps 745 mmHg 26%
    17:00 +26°C° 0 mm 4 mps 744 mmHg 30%
    18:00 +25°C° 0 mm 3 mps 744 mmHg 34%
    19:00 +24°C° 0 mm 3 mps 744 mmHg 38%
    20:00 +22°C° 0 mm 3 mps 744 mmHg 40%
    21:00 +20°C° 0 mm 3 mps 745 mmHg 42%
    22:00 +19°C° 0 mm 3 mps 745 mmHg 44%
    23:00 +18°C° 0 mm 3 mps 745 mmHg 45%

    8 June, Monday

    Time Temperature Precipitation Wind Pressure Humidity
    00:00 +17°C° 0 mm 3 mps 745 mmHg 47%
    01:00 +17°C° 0 mm 3 mps 745 mmHg 48%
    02:00 +17°C° 0 mm 3 mps 745 mmHg 49%
    03:00 +16°C° 0 mm 3 mps 745 mmHg 49%
    04:00 +16°C° 0 mm 3 mps 745 mmHg 49%
    05:00 +18°C° 0 mm 4 mps 745 mmHg 47%
    06:00 +20°C° 0 mm 4 mps 745 mmHg 45%
    07:00 +21°C° 0 mm 5 mps 745 mmHg 43%
    08:00 +23°C° 0 mm 5 mps 745 mmHg 39%
    09:00 +26°C° 0 mm 5 mps 745 mmHg 35%
    10:00 +27°C° 0 mm 5 mps 745 mmHg 31%
    11:00 +28°C° 0 mm 5 mps 745 mmHg 30%
    12:00 +28°C° 0 mm 4 mps 745 mmHg 28%
    13:00 +29°C° 0 mm 4 mps 745 mmHg 27%
    14:00 +28°C° 0 mm 4 mps 745 mmHg 28%
    15:00 +28°C° 0 mm 4 mps 745 mmHg 28%
    16:00 +28°C° 0 mm 3 mps 745 mmHg 29%
    17:00 +27°C° 0 mm 3 mps 745 mmHg 33%
    18:00 +26°C° 0 mm 2 mps 745 mmHg 36%
    19:00 +26°C° 0 mm 2 mps 745 mmHg 40%
    20:00 +24°C° 0 mm 2 mps 745 mmHg 41%
    21:00 +23°C° 0 mm 2 mps 745 mmHg 43%
    22:00 +20°C° 0 mm 2 mps 745 mmHg 44%
    23:00 +20°C° 0 mm 2 mps 746 mmHg 44%

    9 June, Tuesday

    Time Temperature Precipitation Wind Pressure Humidity
    00:00 +19°C° 0 mm 2 mps 746 mmHg 45%
    01:00 +19°C° 0 mm 2 mps 746 mmHg 45%
    02:00 +18°C° 0 mm 3 mps 746 mmHg 47%
    03:00 +18°C° 0 mm 3 mps 746 mmHg 49%
    04:00 +17°C° 0 mm 3 mps 746 mmHg 51%
    05:00 +19°C° 0 mm 3 mps 746 mmHg 49%
    06:00 +21°C° 0 mm 3 mps 747 mmHg 46%
    07:00 +24°C° 0 mm 3 mps 747 mmHg 44%
    08:00 +25°C° 0 mm 3 mps 747 mmHg 39%
    09:00 +27°C° 0 mm 4 mps 747 mmHg 35%
    10:00 +28°C° 0 mm 5 mps 747 mmHg 30%
    11:00 +29°C° 0 mm 5 mps 747 mmHg 28%
    12:00 +30°C° 0 mm 5 mps 747 mmHg 27%
    13:00 +30°C° 0 mm 5 mps 747 mmHg 26%
    14:00 +30°C° 0 mm 5 mps 747 mmHg 28%
    15:00 +29°C° 0 mm 4 mps 747 mmHg 31%
    16:00 +29°C° 0 mm 4 mps 746 mmHg 33%
    17:00 +28°C° 0 mm 4 mps 746 mmHg 35%
    18:00 +28°C° 0 mm 3 mps 746 mmHg 38%
    19:00 +27°C° 0 mm 3 mps 746 mmHg 40%
    20:00 +26°C° 0 mm 3 mps 746 mmHg 42%
    21:00 +24°C° 0 mm 3 mps 746 mmHg 44%
    22:00 +22°C° 0 mm 3 mps 746 mmHg 45%
    23:00 +22°C° 0 mm 3 mps 746 mmHg 49%
    Show more